[[{"header":{"parameterUnit":"m.s-1","parameterCategory":2,"la1":30.2991,"la2":30.254,"lo1":-89.0895,"lo2":-89.0444,"dy":0.0017,"dx":0.0017,"nx":28,"ny":28,"refTime":"2023-09-06T21:00:00:Z","depth":"0","parameterNumber":2,"parameterNumberName":"U-component_of_CURRENTS"},"data":[0,0,0,0,0,0,0,0,0,0,0,0,0,0,0,0,0,0,0,0,0,0,0,0,0,0,0,0,0,0,0,0,0,0,0,0,0,0,0,0,0,0,0,0,0,0,0,0,0,0,0,0,0,0,0,0,0,0,0.2232,0.2232,0,0.2222,0.2222,0.2222,0.2214,0.2214,0.2214,0.2214,0.2184,0.2183,0.2182,0,0,0,0,0,0,0,0,0,0,0,0,0,0.223,0.223,0.2232,0.2232,0.2232,0.2222,0.2222,0.2222,0.2214,0.2214,0.2214,0.2214,0.2184,0.2183,0.2182,0,0,0,0,0,0,0,0,0,0,0,0,0,0.2225,0.223,0.2232,0.2229,0.2229,0.2223,0.2222,0.2222,0.2214,0.2214,0.2214,0.2215,0.2185,0.2183,0.2182,0.217,0,0,0.2178,0.2177,0,0,0,0,0,0,0,0,0.2225,0.2225,0.2229,0.2229,0.2229,0.2221,0.2211,0.2204,0.2214,0.2217,0.2214,0.2215,0.2196,0.2194,0.2189,0.2169,0.2168,0.2178,0.2177,0.2176,0.2176,0,0,0,0,0,0,0,0.2226,0.2225,0.2226,0.2229,0.2229,0.2223,0.2223,0.2209,0.2204,0.2217,0.2217,0.2219,0.2195,0.219,0.2188,0.2167,0.2178,0.2177,0.2176,0.2175,0.2133,0.2132,0,0,0,0,0,0,0.2232,0.2226,0.2227,0.2226,0.223,0.2223,0.2222,0.2222,0.2204,0.2203,0.2219,0.2219,0.2192,0.219,0.2187,0.2176,0.2176,0.2175,0.2174,0.2133,0.2133,0.2132,0,0,0,0,0,0,0.2232,0.2232,0.2227,0.2227,0.2227,0.2224,0.2223,0.2222,0.2217,0.2207,0.2204,0.2216,0.2192,0.2189,0.2171,0.2174,0.2174,0.2173,0.2133,0.2133,0.2133,0.2151,0,0,0,0,0,0,0.2232,0.2232,0.2233,0.2228,0.2227,0.2224,0.2223,0.2221,0.2219,0.2219,0.2203,0.2201,0.2192,0.2173,0.217,0.2172,0.2172,0.2134,0.2133,0.2133,0.2151,0.2151,0.2151,0,0,0,0,0,0.2231,0.2234,0.2233,0.2234,0.2229,0.2224,0.2223,0.222,0.2219,0.2216,0.2203,0.2201,0.2167,0.2172,0.2168,0.217,0.2134,0.2133,0.2133,0.215,0.2151,0.2151,0,0,0,0,0,0,0.2228,0.2233,0.2233,0.2235,0.223,0.2224,0.2225,0.222,0.2207,0.2208,0.2194,0.219,0.2178,0.2167,0.2172,0.2155,0.2152,0.215,0.2166,0.2167,0.2167,0.2178,0.2171,0,0,0,0,0,0.223,0.2236,0.2234,0.2235,0.2235,0.2229,0.2227,0.2225,0.2214,0.221,0.2198,0.2184,0.2171,0.2164,0.2151,0.2139,0.2147,0.2138,0.2138,0.2139,0.2145,0.2144,0.2146,0.213,0.213,0.213,0,0,0.223,0.2233,0.2237,0.2235,0.2233,0.2234,0.2228,0.2227,0.2225,0.2208,0.2199,0.2185,0.2168,0.2156,0.215,0.2148,0.2152,0.2138,0.2139,0.2144,0.2144,0.2145,0.2147,0.213,0.213,0.213,0,0,0.2237,0.2235,0.2245,0.2243,0.2244,0.2238,0.2238,0.2231,0.2227,0.2215,0.2203,0.2189,0.217,0.2158,0.215,0.2142,0.2154,0.214,0.2151,0.2151,0.2153,0.2154,0.2191,0.2195,0.214,0.214,0.214,0,0.2233,0.2249,0.2245,0.2252,0.2254,0.2241,0.2247,0.2237,0.2224,0.222,0.2216,0.2186,0.2172,0.2157,0.2157,0.2145,0.216,0.2153,0.2153,0.2154,0.2156,0.2192,0.2197,0.2141,0.2141,0.2141,0.214,0,0.2251,0.226,0.2264,0.227,0.2267,0.227,0.2259,0.2252,0.2244,0.2235,0.222,0.2198,0.2184,0.2174,0.2165,0.2163,0.2178,0.2155,0.2156,0.2159,0.2197,0.2202,0.2142,0.2142,0.2141,0.2141,0,0,0.2243,0.2273,0.2273,0.2285,0.2279,0.2279,0.2272,0.2265,0.2265,0.2244,0.2245,0.2215,0.2207,0.2197,0.218,0.2177,0.2204,0.2174,0.2174,0.2219,0.2236,0.2411,0.2433,0.2182,0.2182,0.2183,0.2268,0,0.2256,0.2287,0.2291,0.2306,0.2318,0.2304,0.2302,0.229,0.2277,0.2271,0.2245,0.224,0.2214,0.2215,0.2204,0.2201,0.2213,0.2185,0.2219,0.2221,0.2383,0.2443,0.2501,0.2597,0.2273,0.2274,0.2274,0,0.2268,0.2291,0.232,0.2338,0.2341,0.2341,0.2337,0.2332,0.2314,0.2308,0.2289,0.2276,0.2268,0.2246,0.2249,0.2235,0.2243,0.224,0.2243,0.2404,0.2406,0.2536,0.2618,0.2484,0.2282,0.2281,0.228,0,0.2275,0.2303,0.2333,0.2338,0.2355,0.2358,0.2356,0.2342,0.2344,0.2333,0.2342,0.2319,0.2325,0.2312,0.2325,0.2286,0.2348,0.2289,0.2457,0.2469,0.2527,0.2546,0.2492,0.2302,0.2302,0.2302,0.2301,0,0.2284,0.2303,0.2341,0.2355,0.2375,0.2377,0.2387,0.2379,0.238,0.2397,0.2365,0.2394,0.2341,0.2371,0.2358,0.2463,0.2381,0.2494,0.2513,0.2541,0.2559,0.2453,0.2402,0.2305,0.2304,0.2303,0.2303,0,0.2276,0.231,0.2342,0.2374,0.2381,0.239,0.2405,0.2412,0.2417,0.2442,0.2448,0.2458,0.2537,0.2525,0.2536,0.2547,0.2557,0.2648,0.2719,0.2748,0.2806,0.2758,0.2672,0.2585,0.2852,0.2857,0.2861,0,0.227,0.2291,0.2346,0.2365,0.2378,0.2395,0.2408,0.2421,0.244,0.25,0.2524,0.2612,0.2711,0.2828,0.2892,0.2971,0.2752,0.3025,0.2967,0.2862,0.2816,0.2614,0.2527,0.3038,0.3044,0.3048,0.3052,0,0.2245,0.2275,0.2307,0.2353,0.2378,0.2403,0.2431,0.2457,0.2496,0.2552,0.2663,0.2762,0.2963,0.3104,0.3235,0.3264,0.2928,0.3125,0.2958,0.2948,0.2776,0.2685,0.2937,0.3091,0.3087,0.3084,0.3082,0.308,0.2217,0.2233,0.2287,0.2328,0.2363,0.2402,0.2417,0.2484,0.2552,0.2647,0.2765,0.2921,0.3163,0.3415,0.3412,0.3422,0.3282,0.3318,0.3266,0.3064,0.2989,0.3387,0.3603,0.3602,0.3601,0.3601,0.36,0,0.217,0.2209,0.225,0.2304,0.2334,0.2368,0.2424,0.2444,0.2542,0.2705,0.2849,0.3117,0.3331,0.343,0.3602,0.3531,0.3279,0.3386,0.3036,0.2938,0.3259,0.3277,0.3503,0.3503,0.3503,0.3503,0.3503,0.3503,0.2145,0.218,0.2218,0.2263,0.23,0.2317,0.2348,0.2412,0.2517,0.2678,0.2826,0.2992,0.323,0.3483,0.3485,0.342,0.3056,0.3048,0.285,0.3025,0.3008,0.2991,0.2987,0.3149,0.3149,0.2419,0.2414,0.241]},{"header":{"parameterUnit":"m.s-1","parameterCategory":2,"la1":30.2991,"la2":30.254,"lo1":-89.0895,"lo2":-89.0444,"dy":0.0017,"dx":0.0017,"nx":28,"ny":28,"refTime":"2023-09-06T21:00:00:Z","depth":"0","parameterNumber":3,"parameterNumberName":"V-component_of_CURRENTS"},"data":[0,0,0,0,0,0,0,0,0,0,0,0,0,0,0,0,0,0,0,0,0,0,0,0,0,0,0,0,0,0,0,0,0,0,0,0,0,0,0,0,0,0,0,0,0,0,0,0,0,0,0,0,0,0,0,0,0,0,-0.0871,-0.0871,0,-0.0961,-0.0962,-0.0963,-0.1003,-0.1003,-0.1003,-0.1002,-0.1104,-0.1107,-0.111,0,0,0,0,0,0,0,0,0,0,0,0,0,-0.0763,-0.0764,-0.087,-0.0872,-0.0873,-0.0961,-0.0962,-0.0963,-0.1003,-0.1003,-0.1003,-0.1002,-0.1103,-0.1106,-0.111,0,0,0,0,0,0,0,0,0,0,0,0,0,-0.0827,-0.0765,-0.087,-0.0903,-0.0907,-0.096,-0.0962,-0.0964,-0.1003,-0.1003,-0.1002,-0.1002,-0.1102,-0.1106,-0.111,-0.1142,0,0,-0.1123,-0.1125,0,0,0,0,0,0,0,0,-0.0823,-0.0831,-0.0897,-0.0901,-0.0905,-0.097,-0.0961,-0.1024,-0.1003,-0.0967,-0.1002,-0.1002,-0.106,-0.1068,-0.1086,-0.1146,-0.1151,-0.1124,-0.1126,-0.1128,-0.1129,0,0,0,0,0,0,0,-0.0819,-0.0828,-0.0907,-0.0898,-0.0903,-0.0923,-0.0932,-0.0973,-0.1014,-0.097,-0.0973,-0.0982,-0.1062,-0.1082,-0.1089,-0.1152,-0.1124,-0.1128,-0.113,-0.1132,-0.1253,-0.1254,0,0,0,0,0,0,-0.0806,-0.0823,-0.0904,-0.0909,-0.0862,-0.0925,-0.0935,-0.095,-0.1014,-0.1023,-0.0983,-0.0984,-0.1074,-0.1083,-0.1092,-0.1142,-0.1128,-0.1132,-0.1135,-0.1253,-0.1254,-0.1254,0,0,0,0,0,0,-0.0803,-0.0812,-0.09,-0.0868,-0.088,-0.0927,-0.0943,-0.0952,-0.0971,-0.1023,-0.1033,-0.0994,-0.1075,-0.1086,-0.1129,-0.1146,-0.1134,-0.1138,-0.1252,-0.1253,-0.1254,-0.1235,0,0,0,0,0,0,-0.08,-0.0811,-0.0817,-0.0867,-0.0881,-0.093,-0.0944,-0.0953,-0.0977,-0.098,-0.1036,-0.1045,-0.1075,-0.1122,-0.1133,-0.1151,-0.1141,-0.1251,-0.1252,-0.1254,-0.1235,-0.1236,-0.1236,0,0,0,0,0,-0.0796,-0.0806,-0.0816,-0.0826,-0.0888,-0.093,-0.094,-0.0972,-0.0978,-0.0988,-0.1024,-0.1043,-0.1138,-0.1126,-0.1139,-0.1159,-0.1251,-0.1252,-0.1254,-0.1235,-0.1235,-0.1236,0,0,0,0,0,0,-0.076,-0.0812,-0.0825,-0.0849,-0.0884,-0.0937,-0.095,-0.0971,-0.1008,-0.1009,-0.1053,-0.1066,-0.1108,-0.1136,-0.1122,-0.1197,-0.1197,-0.1201,-0.1179,-0.118,-0.118,-0.1163,-0.1145,0,0,0,0,0,-0.0755,-0.0777,-0.0825,-0.0843,-0.0859,-0.0903,-0.0923,-0.0945,-0.0985,-0.1001,-0.1041,-0.1084,-0.1125,-0.1152,-0.119,-0.1235,-0.1239,-0.1255,-0.1255,-0.1256,-0.125,-0.1274,-0.1276,-0.1259,-0.1259,-0.1259,0,0,-0.0745,-0.0776,-0.0788,-0.0837,-0.0866,-0.0893,-0.0915,-0.0944,-0.0969,-0.1007,-0.105,-0.1084,-0.1135,-0.1182,-0.1204,-0.1208,-0.126,-0.1257,-0.1257,-0.1252,-0.1276,-0.1278,-0.1279,-0.126,-0.126,-0.126,0,0,-0.0738,-0.0764,-0.078,-0.081,-0.0852,-0.0882,-0.0888,-0.094,-0.0965,-0.101,-0.1041,-0.108,-0.115,-0.1188,-0.1217,-0.1243,-0.1256,-0.126,-0.1258,-0.1281,-0.1282,-0.1283,-0.1274,-0.1274,-0.1267,-0.1267,-0.1267,0,-0.0718,-0.0753,-0.079,-0.0813,-0.0834,-0.0875,-0.0894,-0.093,-0.0989,-0.1008,-0.1019,-0.1111,-0.1153,-0.1209,-0.1221,-0.1244,-0.1248,-0.125,-0.128,-0.1281,-0.1283,-0.1273,-0.1274,-0.1266,-0.1266,-0.1266,-0.1266,0,-0.0731,-0.0754,-0.0765,-0.0809,-0.0836,-0.0858,-0.0908,-0.0935,-0.0966,-0.1002,-0.1055,-0.111,-0.1161,-0.1188,-0.1218,-0.1257,-0.1251,-0.1271,-0.1274,-0.1283,-0.1272,-0.1273,-0.1265,-0.1265,-0.1266,-0.1266,0,0,-0.0691,-0.0759,-0.0761,-0.0776,-0.0834,-0.0853,-0.0894,-0.0941,-0.0955,-0.1018,-0.1043,-0.1125,-0.1145,-0.1178,-0.1219,-0.125,-0.1264,-0.1267,-0.1268,-0.1247,-0.1291,-0.1212,-0.1205,-0.1291,-0.1291,-0.1292,-0.1272,0,-0.0685,-0.0721,-0.0762,-0.0786,-0.0805,-0.0851,-0.0881,-0.0926,-0.0965,-0.0999,-0.1062,-0.1099,-0.1146,-0.1161,-0.1204,-0.1245,-0.1269,-0.1265,-0.1294,-0.1294,-0.1215,-0.1205,-0.1065,-0.103,-0.1273,-0.1273,-0.1273,0,-0.068,-0.0706,-0.073,-0.077,-0.078,-0.0798,-0.0835,-0.0868,-0.0929,-0.0957,-0.1008,-0.1051,-0.1109,-0.1141,-0.1215,-0.121,-0.1248,-0.128,-0.1281,-0.1213,-0.1217,-0.1065,-0.1023,-0.1202,-0.1275,-0.1275,-0.1275,0,-0.063,-0.0678,-0.0693,-0.071,-0.0763,-0.0772,-0.0797,-0.0849,-0.0864,-0.0919,-0.0923,-0.1007,-0.1024,-0.1102,-0.1165,-0.1194,-0.1224,-0.1272,-0.1234,-0.1228,-0.1116,-0.1099,-0.124,-0.132,-0.132,-0.132,-0.132,0,-0.0607,-0.0613,-0.0666,-0.0671,-0.067,-0.0724,-0.0722,-0.0759,-0.0797,-0.0789,-0.0887,-0.0878,-0.1016,-0.1052,-0.1134,-0.116,-0.1197,-0.1218,-0.1219,-0.1104,-0.1086,-0.1244,-0.1362,-0.1319,-0.1319,-0.1319,-0.1319,0,-0.0547,-0.0589,-0.0596,-0.064,-0.0646,-0.064,-0.0662,-0.066,-0.0703,-0.0691,-0.0701,-0.0775,-0.0807,-0.0921,-0.1017,-0.1085,-0.1194,-0.1144,-0.0979,-0.096,-0.1101,-0.1221,-0.1316,-0.1394,-0.1107,-0.1105,-0.1103,0,-0.052,-0.0522,-0.055,-0.0543,-0.0556,-0.0557,-0.0552,-0.0602,-0.0591,-0.0604,-0.0583,-0.0618,-0.0577,-0.0679,-0.0804,-0.0899,-0.1101,-0.0874,-0.0918,-0.1078,-0.1214,-0.1304,-0.1372,-0.0759,-0.0755,-0.0751,-0.0748,0,-0.046,-0.0471,-0.0478,-0.0464,-0.0454,-0.044,-0.0433,-0.041,-0.0442,-0.0397,-0.032,-0.0275,-0.0351,-0.0344,-0.05,-0.0603,-0.0959,-0.0803,-0.1021,-0.0989,-0.1043,-0.1126,-0.0802,-0.0716,-0.0719,-0.0721,-0.0723,-0.0724,-0.0405,-0.0392,-0.0402,-0.0382,-0.0363,-0.0319,-0.0273,-0.0229,-0.0154,-0.0011,-0.0031,0.0189,0.0085,-0.0078,-0.0313,-0.0645,-0.0745,-0.0732,-0.087,-0.0953,-0.1015,-0.0603,-0.0492,-0.0494,-0.0496,-0.0497,-0.0499,0,-0.035,-0.0345,-0.0322,-0.0295,-0.0244,-0.0258,-0.019,-0.0095,0.0064,0.0309,0.0471,0.0704,0.0507,0.0186,-0.0264,-0.061,-0.0804,-0.0848,-0.0979,-0.1056,-0.0709,-0.0683,-0.0545,-0.0544,-0.0544,-0.0544,-0.0544,-0.0544,-0.032,-0.0295,-0.0289,-0.02,-0.0164,-0.0064,-0.0006,0.0179,0.0394,0.0829,0.1153,0.1352,0.1188,0.0133,-0.0637,-0.0858,-0.1198,-0.1186,-0.146,-0.1261,-0.1263,-0.1265,-0.1272,-0.1258,-0.1259,-0.1701,-0.1706,-0.171]}],[{"header":{"parameterUnit":"m.s-1","parameterCategory":2,"la1":30.2991,"la2":30.254,"lo1":-89.0895,"lo2":-89.0444,"dy":0.0017,"dx":0.0017,"nx":28,"ny":28,"refTime":"2023-09-06T21:00:00:Z","depth":"2","parameterNumber":2,"parameterNumberName":"U-component_of_CURRENTS"},"data":[0,0,0,0,0,0,0,0,0,0,0,0,0,0,0,0,0,0,0,0,0,0,0,0,0,0,0,0,0,0,0,0,0,0,0,0,0,0,0,0,0,0,0,0,0,0,0,0,0,0,0,0,0,0,0,0,0,0,0.1701,0.1702,0,0.175,0.1751,0.1751,0.173,0.1729,0.1728,0.1727,0.1717,0.1717,0.1718,0,0,0,0,0,0,0,0,0,0,0,0,0,0.1619,0.162,0.1701,0.1702,0.1702,0.175,0.1751,0.1751,0.173,0.1729,0.1728,0.1726,0.1716,0.1717,0.1718,0,0,0,0,0,0,0,0,0,0,0,0,0,0.1658,0.162,0.1701,0.1699,0.17,0.175,0.1751,0.1751,0.173,0.1729,0.1727,0.1726,0.1716,0.1717,0.1718,0.1754,0,0,0.1721,0.1721,0,0,0,0,0,0,0,0,0.1656,0.1661,0.1699,0.1699,0.17,0.1734,0.1718,0.175,0.1731,0.1717,0.1727,0.1725,0.1719,0.172,0.1731,0.1754,0.1753,0.1721,0.1722,0.1722,0.1722,0,0,0,0,0,0,0,0.1653,0.1659,0.1718,0.17,0.1701,0.1707,0.171,0.1724,0.1723,0.1718,0.1717,0.1726,0.1719,0.173,0.173,0.1753,0.1721,0.1722,0.1723,0.1723,0.1802,0.1804,0,0,0,0,0,0,0.1652,0.1656,0.1717,0.172,0.1676,0.171,0.1713,0.1723,0.1724,0.1724,0.1727,0.1725,0.1729,0.1729,0.1729,0.1767,0.1722,0.1723,0.1724,0.1801,0.1803,0.1804,0,0,0,0,0,0,0.165,0.1657,0.1715,0.1691,0.1699,0.1712,0.1724,0.1725,0.173,0.1733,0.173,0.1731,0.1728,0.1728,0.1748,0.1766,0.1724,0.1724,0.1799,0.1801,0.1803,0.1845,0,0,0,0,0,0,0.1647,0.1656,0.1661,0.1691,0.17,0.1748,0.1726,0.1727,0.174,0.1737,0.1736,0.1733,0.1726,0.1746,0.1749,0.1767,0.1725,0.1797,0.18,0.1803,0.1841,0.1848,0.1854,0,0,0,0,0,0.1644,0.1661,0.1661,0.1669,0.1708,0.1749,0.1755,0.1758,0.1742,0.1754,0.1753,0.1733,0.1766,0.1749,0.1751,0.1769,0.1796,0.1799,0.1802,0.1839,0.1847,0.1854,0,0,0,0,0,0,0.1632,0.1661,0.1662,0.1687,0.1717,0.1746,0.176,0.1762,0.1773,0.1764,0.1755,0.1755,0.1782,0.1775,0.1756,0.1802,0.1777,0.1781,0.1803,0.1811,0.1817,0.1801,0.1726,0,0,0,0,0,0.1633,0.1648,0.1682,0.1703,0.1718,0.1739,0.1754,0.1759,0.1775,0.1778,0.1776,0.178,0.1802,0.1803,0.1819,0.1843,0.1854,0.1857,0.1863,0.1868,0.1858,0.1889,0.1896,0.1815,0.1815,0.1815,0,0,0.1631,0.1653,0.1659,0.1701,0.1721,0.175,0.1744,0.1772,0.1792,0.1776,0.1795,0.1805,0.1816,0.1846,0.1856,0.1837,0.1908,0.1873,0.1877,0.1863,0.1893,0.1901,0.1907,0.1818,0.1817,0.1817,0,0,0.1641,0.166,0.1674,0.1703,0.174,0.176,0.1768,0.1798,0.1807,0.1834,0.1833,0.1851,0.1871,0.1886,0.1895,0.1946,0.1945,0.1954,0.1963,0.1994,0.2,0.2006,0.2072,0.2083,0.1949,0.1949,0.1949,0,0.1635,0.1659,0.1687,0.1715,0.1734,0.1763,0.1784,0.1814,0.1843,0.1852,0.184,0.1885,0.1889,0.1934,0.1948,0.1958,0.1986,0.1932,0.2001,0.2006,0.2011,0.2077,0.2088,0.1952,0.1951,0.1951,0.1951,0,0.1656,0.1676,0.1693,0.1731,0.1761,0.1788,0.1831,0.1854,0.1861,0.188,0.192,0.1938,0.1955,0.1972,0.1971,0.2018,0.2034,0.2011,0.1977,0.2021,0.2089,0.21,0.1955,0.1954,0.1953,0.1953,0,0,0.1633,0.169,0.1693,0.1709,0.1766,0.1792,0.1836,0.1877,0.1904,0.1929,0.1958,0.1995,0.1997,0.2008,0.2023,0.2045,0.2119,0.2039,0.2039,0.2097,0.2219,0.2219,0.2232,0.2106,0.2107,0.2108,0.2267,0,0.1634,0.1668,0.1703,0.1739,0.1759,0.1803,0.1844,0.1887,0.1924,0.1966,0.1993,0.203,0.2019,0.2031,0.2056,0.2107,0.2143,0.2079,0.2172,0.2176,0.2164,0.2242,0.2065,0.2189,0.2278,0.228,0.2281,0,0.1636,0.1658,0.168,0.1733,0.1747,0.1774,0.1833,0.1878,0.1952,0.1981,0.202,0.2048,0.2106,0.2076,0.2179,0.2141,0.2176,0.2209,0.2216,0.2199,0.2195,0.2152,0.2206,0.23,0.2298,0.2297,0.2296,0,0.159,0.1643,0.165,0.167,0.1738,0.1752,0.179,0.1865,0.1914,0.199,0.2027,0.2095,0.2145,0.2186,0.2275,0.222,0.2403,0.2332,0.2375,0.2377,0.2233,0.222,0.239,0.239,0.239,0.2389,0.2389,0,0.1574,0.1584,0.1626,0.1633,0.1657,0.1716,0.1759,0.1813,0.1903,0.1977,0.2025,0.2121,0.2169,0.2283,0.2319,0.2422,0.2446,0.2397,0.2415,0.225,0.2237,0.2318,0.2308,0.2395,0.2394,0.2393,0.2392,0,0.1528,0.1552,0.1569,0.1618,0.1634,0.165,0.1735,0.1785,0.1866,0.1969,0.1993,0.2156,0.2317,0.2401,0.2524,0.2496,0.2579,0.2607,0.2437,0.2431,0.2514,0.2504,0.2627,0.2628,0.2629,0.263,0.2631,0,0.1508,0.1508,0.154,0.1553,0.1573,0.161,0.1652,0.1748,0.1818,0.2018,0.2079,0.2266,0.2376,0.2584,0.2625,0.27,0.2717,0.2549,0.2378,0.2531,0.2538,0.2526,0.2515,0.223,0.2227,0.2225,0.2224,0,0.1477,0.1479,0.1493,0.1513,0.1542,0.1585,0.1655,0.1705,0.1849,0.1933,0.2118,0.2213,0.2431,0.2458,0.2571,0.2581,0.2508,0.2506,0.2729,0.2193,0.2168,0.217,0.217,0.2205,0.2207,0.2208,0.2209,0.221,0.1453,0.145,0.1465,0.1483,0.1518,0.1565,0.1586,0.1674,0.1767,0.1879,0.2057,0.2137,0.2238,0.2316,0.2326,0.235,0.2476,0.2335,0.2336,0.2341,0.2262,0.2239,0.2278,0.228,0.2282,0.2284,0.2285,0,0.1424,0.143,0.1446,0.1469,0.1482,0.1519,0.1596,0.1578,0.1645,0.1788,0.1869,0.1806,0.188,0.2019,0.2013,0.2017,0.1932,0.1951,0.1818,0.1842,0.1862,0.1751,0.1635,0.1633,0.163,0.1628,0,0,0.141,0.1404,0.141,0.1421,0.1441,0.1422,0.1445,0.1424,0.1477,0.1491,0.1557,0.1725,0.1905,0.1706,0.173,0.1681,0.1721,0.1621,0.2153,0.2017,0.2032,0.2116,0.1978,0,0,0,0,0]},{"header":{"parameterUnit":"m.s-1","parameterCategory":2,"la1":30.2991,"la2":30.254,"lo1":-89.0895,"lo2":-89.0444,"dy":0.0017,"dx":0.0017,"nx":28,"ny":28,"refTime":"2023-09-06T21:00:00:Z","depth":"2","parameterNumber":3,"parameterNumberName":"V-component_of_CURRENTS"},"data":[0,0,0,0,0,0,0,0,0,0,0,0,0,0,0,0,0,0,0,0,0,0,0,0,0,0,0,0,0,0,0,0,0,0,0,0,0,0,0,0,0,0,0,0,0,0,0,0,0,0,0,0,0,0,0,0,0,0,0.0243,0.0242,0,0.0166,0.0165,0.0164,0.0106,0.0106,0.0105,0.0105,0.0006,0.0004,0.0002,0,0,0,0,0,0,0,0,0,0,0,0,0,0.0305,0.0305,0.0243,0.0242,0.0241,0.0166,0.0165,0.0164,0.0106,0.0106,0.0105,0.0104,0.0007,0.0004,0.0002,0,0,0,0,0,0,0,0,0,0,0,0,0,0.0258,0.0304,0.0243,0.0204,0.0199,0.0166,0.0165,0.0164,0.0106,0.0106,0.0105,0.0104,0.0008,0.0005,0.0001,-0.0004,0,0,-0.0008,-0.001,0,0,0,0,0,0,0,0,0.0261,0.0256,0.021,0.0206,0.0201,0.0145,0.0151,0.0107,0.0106,0.0141,0.0105,0.0104,0.0051,0.0045,0.0032,-0.0008,-0.0012,-0.0009,-0.0011,-0.0012,-0.0013,0,0,0,0,0,0,0,0.0264,0.0259,0.0212,0.021,0.0204,0.0178,0.017,0.0142,0.0101,0.0138,0.0134,0.0126,0.0049,0.0035,0.0029,-0.0014,-0.0009,-0.0012,-0.0014,-0.0015,-0.0091,-0.0091,0,0,0,0,0,0,0.0277,0.0262,0.0215,0.021,0.023,0.0177,0.0169,0.0164,0.0102,0.0092,0.0127,0.0124,0.0041,0.0033,0.0025,-0.0012,-0.0012,-0.0015,-0.0017,-0.0091,-0.0091,-0.0091,0,0,0,0,0,0,0.0279,0.0274,0.0218,0.0234,0.0225,0.0177,0.0171,0.0163,0.0144,0.0093,0.0082,0.0117,0.004,0.003,-0.0005,-0.0015,-0.0017,-0.002,-0.0091,-0.0091,-0.0091,-0.0067,0,0,0,0,0,0,0.0281,0.0275,0.0275,0.0235,0.0225,0.02,0.0172,0.0162,0.014,0.0135,0.0081,0.0071,0.0038,-0.0,-0.0009,-0.0019,-0.0022,-0.009,-0.0091,-0.0091,-0.0068,-0.0067,-0.0065,0,0,0,0,0,0.0283,0.0288,0.0276,0.027,0.0227,0.0201,0.0193,0.0156,0.0141,0.0136,0.0096,0.0073,-0.0007,-0.0003,-0.0013,-0.0024,-0.009,-0.0091,-0.0091,-0.0069,-0.0067,-0.0065,0,0,0,0,0,0,0.0311,0.0281,0.0267,0.0261,0.0234,0.0191,0.0183,0.016,0.0125,0.0118,0.0071,0.0059,0.0024,0.0001,0.0007,-0.0046,-0.0052,-0.0054,-0.0032,-0.0031,-0.003,-0.0013,-0.0025,0,0,0,0,0,0.032,0.0318,0.0281,0.0277,0.0266,0.0226,0.0211,0.0186,0.0151,0.0134,0.0094,0.0053,0.0018,-0.0005,-0.0038,-0.0065,-0.0076,-0.0078,-0.0077,-0.0075,-0.0068,-0.0088,-0.0088,-0.0091,-0.0091,-0.0091,0,0,0.0328,0.0313,0.031,0.0283,0.0259,0.0244,0.0215,0.0195,0.0177,0.013,0.0094,0.0057,0.0013,-0.0022,-0.004,-0.0045,-0.008,-0.0076,-0.0074,-0.0068,-0.0088,-0.0088,-0.0088,-0.0092,-0.0092,-0.0091,0,0,0.0347,0.0332,0.0335,0.0316,0.0286,0.0261,0.0257,0.0214,0.019,0.0154,0.0115,0.0076,0.002,-0.0016,-0.0041,-0.0049,-0.0071,-0.0061,-0.0047,-0.0066,-0.0066,-0.0066,-0.0078,-0.0079,-0.0063,-0.0063,-0.0063,0,0.0358,0.0355,0.0331,0.0327,0.0314,0.0271,0.0267,0.0237,0.0185,0.0175,0.0146,0.0071,0.0022,-0.0012,-0.0028,-0.0047,-0.0056,-0.005,-0.0064,-0.0064,-0.0064,-0.0077,-0.0078,-0.0062,-0.0062,-0.0062,-0.0062,0,0.0374,0.037,0.0371,0.0351,0.0336,0.0326,0.0285,0.0267,0.0231,0.0202,0.0162,0.0095,0.0054,0.0024,-0.0015,-0.004,-0.0044,-0.0057,-0.0066,-0.0062,-0.0076,-0.0078,-0.006,-0.0061,-0.0061,-0.0061,0,0,0.0399,0.0386,0.0384,0.0386,0.035,0.0342,0.0321,0.0296,0.0302,0.0231,0.023,0.0134,0.0106,0.0077,0.0027,-0.0008,-0.0038,-0.0037,-0.0039,-0.0045,-0.0073,-0.0067,-0.0069,-0.0052,-0.0052,-0.0052,-0.008,0,0.0416,0.0424,0.0407,0.041,0.0412,0.0379,0.0369,0.0343,0.0318,0.0307,0.0233,0.0202,0.0124,0.0104,0.0056,-0.0003,-0.0042,-0.0028,-0.0078,-0.008,-0.0071,-0.007,-0.0099,-0.0126,-0.0082,-0.0083,-0.0083,0,0.0431,0.0439,0.0448,0.0455,0.0453,0.0443,0.0445,0.0434,0.0409,0.0394,0.0354,0.0302,0.0231,0.0168,0.0063,0.0078,0.0,-0.0054,-0.0056,-0.0058,-0.0077,-0.0123,-0.0131,-0.0087,-0.0086,-0.0086,-0.0086,0,0.0464,0.0467,0.048,0.0477,0.0472,0.0473,0.0467,0.0457,0.0475,0.0451,0.0462,0.0381,0.0345,0.024,0.0112,0.0086,0.0016,-0.003,-0.0097,-0.0097,-0.0135,-0.0137,-0.0106,-0.0106,-0.0106,-0.0106,-0.0106,0,0.0491,0.0501,0.0496,0.0502,0.053,0.051,0.0544,0.0538,0.0553,0.0598,0.0505,0.0537,0.0359,0.0296,0.0163,0.0045,0.0055,-0.0089,-0.0103,-0.0127,-0.0129,-0.0105,-0.0105,-0.0107,-0.0107,-0.0106,-0.0106,0,0.0522,0.0515,0.0538,0.0541,0.0544,0.0563,0.0594,0.0636,0.0631,0.0691,0.0681,0.0649,0.0581,0.0415,0.0268,0.0125,0.0003,-0.0045,-0.0056,-0.0071,-0.0116,-0.0114,-0.0135,-0.0135,-0.0135,-0.0135,-0.0135,0,0.0541,0.0552,0.0569,0.0592,0.0591,0.0619,0.0653,0.0669,0.0734,0.0784,0.0835,0.0782,0.0767,0.056,0.0314,0.0088,0.0067,-0.0088,-0.0159,-0.0106,-0.0119,-0.0117,-0.0115,-0.0205,-0.0206,-0.0206,-0.0206,0,0.0585,0.0582,0.0606,0.0649,0.0683,0.0739,0.0793,0.0861,0.0907,0.096,0.1061,0.1045,0.0836,0.0606,0.0284,0.0133,-0.0059,-0.0104,-0.0041,-0.0183,-0.0173,-0.0185,-0.0181,-0.0211,-0.021,-0.021,-0.021,-0.021,0.0619,0.0648,0.0676,0.0724,0.0769,0.086,0.0933,0.1014,0.1127,0.1199,0.1209,0.1159,0.0892,0.047,0.021,-0.0074,-0.0057,-0.0198,-0.0197,-0.0195,-0.0188,-0.0177,-0.0215,-0.0214,-0.0214,-0.0214,-0.0213,0,0.067,0.0702,0.0751,0.0823,0.0899,0.0899,0.1034,0.1109,0.1255,0.1278,0.1309,0.1045,0.0757,0.0478,0.0019,-0.0244,-0.0283,-0.0299,-0.0318,-0.0311,-0.0306,-0.0307,-0.0364,-0.0365,-0.0366,-0.0366,0,0,0.0697,0.0762,0.0792,0.0927,0.0977,0.1093,0.1179,0.1257,0.1302,0.1335,0.1278,0.1166,0.0817,0.0467,0.0123,-0.0133,-0.0159,-0.0172,-0.003,-0.0007,0.0001,-0.0231,-0.0221,0,0,0,0,0]}],[{"header":{"parameterUnit":"m.s-1","parameterCategory":2,"la1":30.2991,"la2":30.254,"lo1":-89.0895,"lo2":-89.0444,"dy":0.0017,"dx":0.0017,"nx":28,"ny":28,"refTime":"2023-09-06T21:00:00:Z","depth":"4","parameterNumber":2,"parameterNumberName":"U-component_of_CURRENTS"},"data":[0,0,0,0,0,0,0,0,0,0,0,0,0,0,0,0,0,0,0,0,0,0,0,0,0,0,0,0,0,0,0,0,0,0,0,0,0,0,0,0,0,0,0,0,0,0,0,0,0,0,0,0,0,0,0,0,0,0,0.0881,0.0882,0,0.0943,0.0944,0.0945,0.0981,0.0981,0.0982,0.0982,0.1052,0.1053,0.1055,0,0,0,0,0,0,0,0,0,0,0,0,0,0.079,0.0792,0.0881,0.0882,0.0883,0.0943,0.0944,0.0945,0.0981,0.0981,0.0982,0.0982,0.1051,0.1053,0.1055,0,0,0,0,0,0,0,0,0,0,0,0,0,0.0838,0.0792,0.0881,0.0909,0.0912,0.0943,0.0944,0.0945,0.0981,0.0981,0.0982,0.0982,0.105,0.1053,0.1055,0.1062,0,0,0.1063,0.1064,0,0,0,0,0,0,0,0,0.0835,0.0841,0.0904,0.0907,0.0911,0.0956,0.0938,0.0985,0.0981,0.0953,0.0982,0.0982,0.1021,0.1026,0.1035,0.1065,0.1068,0.1063,0.1064,0.1065,0.1066,0,0,0,0,0,0,0,0.0832,0.0838,0.0904,0.0905,0.0909,0.0918,0.0925,0.0947,0.0983,0.0956,0.0959,0.0968,0.1023,0.1032,0.1037,0.1069,0.1063,0.1065,0.1066,0.1067,0.1177,0.1179,0,0,0,0,0,0,0.0827,0.0835,0.0902,0.0906,0.0875,0.0919,0.0927,0.094,0.0983,0.099,0.0968,0.0969,0.1028,0.1034,0.1039,0.1112,0.1065,0.1068,0.1069,0.1176,0.1178,0.1179,0,0,0,0,0,0,0.0824,0.0832,0.09,0.0873,0.0882,0.0921,0.0935,0.0941,0.0974,0.0992,0.0999,0.0996,0.1028,0.1036,0.1081,0.1113,0.1069,0.1071,0.1174,0.1176,0.1178,0.1218,0,0,0,0,0,0,0.0822,0.0831,0.0849,0.0873,0.0884,0.0933,0.0935,0.0942,0.0978,0.0981,0.1018,0.1024,0.1029,0.1078,0.1084,0.1115,0.1073,0.1172,0.1175,0.1178,0.1215,0.1221,0.1227,0,0,0,0,0,0.0818,0.0836,0.0849,0.0858,0.0904,0.0934,0.0941,0.0967,0.0979,0.0997,0.1025,0.1024,0.11,0.1081,0.1088,0.112,0.1171,0.1174,0.1178,0.1212,0.122,0.1227,0,0,0,0,0,0,0.0802,0.0842,0.0857,0.0886,0.0916,0.0941,0.0963,0.0981,0.1017,0.1028,0.1042,0.105,0.1102,0.1107,0.1086,0.1161,0.1136,0.114,0.116,0.1167,0.1173,0.117,0.1075,0,0,0,0,0,0.0807,0.0835,0.0869,0.0893,0.0911,0.0942,0.0962,0.0982,0.1012,0.103,0.1055,0.1086,0.1117,0.1139,0.1163,0.1204,0.1209,0.123,0.1236,0.1241,0.1245,0.1282,0.1292,0.119,0.119,0.119,0,0,0.0807,0.0833,0.0849,0.0893,0.0918,0.0947,0.0955,0.0993,0.1023,0.1031,0.1084,0.1109,0.1132,0.1179,0.1203,0.1191,0.1274,0.1246,0.125,0.125,0.1287,0.1297,0.1305,0.1192,0.1192,0.1192,0,0,0.081,0.0846,0.0867,0.0897,0.0944,0.0965,0.0982,0.1023,0.1051,0.1101,0.1117,0.116,0.1206,0.123,0.1246,0.1301,0.1303,0.1315,0.1347,0.1384,0.1392,0.14,0.1417,0.1426,0.132,0.132,0.132,0,0.0809,0.0842,0.0878,0.0906,0.0934,0.0976,0.1004,0.1038,0.109,0.1116,0.1124,0.1206,0.1228,0.1283,0.1307,0.1314,0.1331,0.1316,0.1391,0.1398,0.1405,0.1422,0.1431,0.1322,0.1322,0.1322,0.1321,0,0.0823,0.0859,0.0875,0.0927,0.0961,0.0996,0.1044,0.1086,0.1126,0.1157,0.1226,0.1261,0.1309,0.1328,0.1338,0.1404,0.1399,0.1392,0.1369,0.1418,0.1432,0.1441,0.1326,0.1325,0.1324,0.1323,0,0,0.0795,0.087,0.0879,0.0907,0.098,0.1005,0.1064,0.1122,0.1166,0.1221,0.1273,0.1337,0.1362,0.1384,0.1407,0.1445,0.1511,0.1448,0.1449,0.146,0.159,0.1499,0.15,0.1524,0.1526,0.1528,0.1579,0,0.0796,0.0847,0.089,0.0943,0.0973,0.1035,0.1084,0.1145,0.1205,0.1266,0.1314,0.1381,0.1382,0.1426,0.146,0.1507,0.1537,0.1497,0.1546,0.1547,0.1456,0.1508,0.1534,0.1585,0.1587,0.1589,0.159,0,0.079,0.0832,0.0883,0.0956,0.0976,0.1018,0.111,0.1161,0.1253,0.1304,0.1371,0.1418,0.1496,0.1488,0.1574,0.1554,0.1576,0.1599,0.1601,0.1508,0.1473,0.1528,0.1605,0.1604,0.1603,0.1602,0.1601,0,0.0745,0.0821,0.0863,0.0891,0.0982,0.1023,0.1077,0.1173,0.1229,0.1344,0.1405,0.148,0.1544,0.1585,0.1639,0.1624,0.1718,0.1695,0.1626,0.1619,0.1666,0.1657,0.1746,0.1746,0.1746,0.1745,0.1745,0,0.072,0.0754,0.085,0.0873,0.093,0.1005,0.108,0.1148,0.1255,0.132,0.1426,0.149,0.1579,0.1641,0.1662,0.1671,0.1736,0.1639,0.1632,0.1681,0.1674,0.1672,0.1662,0.1747,0.1747,0.1747,0.1746,0,0.0655,0.0721,0.0765,0.0867,0.0908,0.0945,0.1074,0.1131,0.1248,0.134,0.1389,0.1522,0.1608,0.1672,0.1748,0.1701,0.1722,0.1705,0.1758,0.1751,0.1588,0.1581,0.1627,0.1624,0.1622,0.162,0.1618,0,0.0628,0.0646,0.0745,0.0784,0.0835,0.0919,0.0987,0.1112,0.1171,0.1343,0.1372,0.1512,0.1585,0.1616,0.1684,0.1713,0.1694,0.1687,0.163,0.159,0.158,0.1576,0.1571,0.1615,0.1614,0.1614,0.1613,0,0.0564,0.0597,0.0627,0.0715,0.0787,0.0862,0.096,0.0993,0.1137,0.1259,0.1341,0.1411,0.1498,0.1554,0.1597,0.161,0.1683,0.1663,0.1667,0.1613,0.1577,0.1567,0.1565,0.1605,0.1606,0.1607,0.1608,0,0.0505,0.0506,0.056,0.0626,0.071,0.0777,0.0842,0.0929,0.1004,0.1185,0.1205,0.1356,0.147,0.1502,0.1537,0.1552,0.1524,0.1468,0.1482,0.1491,0.1426,0.1358,0.1322,0,0,0,0,0,0.045,0.0452,0.0492,0.055,0.0627,0.0691,0.0816,0.0886,0.1021,0.1048,0.1123,0.1203,0.129,0.1365,0.1354,0.147,0.152,0.1451,0.1458,0.1562,0.1571,0.1508,0,0,0,0,0,0,0.0419,0.0433,0.0452,0.0472,0.051,0.0596,0.0673,0.0772,0.0791,0.0937,0.0992,0.1114,0.1213,0.1272,0.1322,0.1344,0.1323,0.1542,0.1539,0.1557,0.1565,0.1573,0.1511,0,0,0,0,0]},{"header":{"parameterUnit":"m.s-1","parameterCategory":2,"la1":30.2991,"la2":30.254,"lo1":-89.0895,"lo2":-89.0444,"dy":0.0017,"dx":0.0017,"nx":28,"ny":28,"refTime":"2023-09-06T21:00:00:Z","depth":"4","parameterNumber":3,"parameterNumberName":"V-component_of_CURRENTS"},"data":[0,0,0,0,0,0,0,0,0,0,0,0,0,0,0,0,0,0,0,0,0,0,0,0,0,0,0,0,0,0,0,0,0,0,0,0,0,0,0,0,0,0,0,0,0,0,0,0,0,0,0,0,0,0,0,0,0,0,0.0264,0.0264,0,0.023,0.0229,0.0229,0.0215,0.0215,0.0216,0.0216,0.017,0.0168,0.0167,0,0,0,0,0,0,0,0,0,0,0,0,0,0.0287,0.0287,0.0264,0.0264,0.0264,0.023,0.0229,0.0229,0.0215,0.0216,0.0216,0.0216,0.017,0.0169,0.0167,0,0,0,0,0,0,0,0,0,0,0,0,0,0.0267,0.0287,0.0264,0.0253,0.0251,0.023,0.0229,0.0229,0.0215,0.0216,0.0216,0.0216,0.0171,0.0169,0.0167,0.0152,0,0,0.0161,0.016,0,0,0,0,0,0,0,0,0.0269,0.0267,0.0255,0.0254,0.0252,0.0227,0.0221,0.0202,0.0215,0.0229,0.0216,0.0216,0.0188,0.0184,0.0178,0.0149,0.0147,0.0161,0.0159,0.0159,0.0158,0,0,0,0,0,0,0,0.027,0.0268,0.0251,0.0254,0.0253,0.0239,0.0236,0.0217,0.0208,0.0228,0.0227,0.0223,0.0187,0.018,0.0176,0.0147,0.0161,0.0159,0.0158,0.0157,0.0119,0.0119,0,0,0,0,0,0,0.0276,0.0269,0.0252,0.025,0.0261,0.0238,0.0235,0.0235,0.0208,0.0204,0.0223,0.0223,0.0183,0.0179,0.0175,0.0181,0.0159,0.0157,0.0156,0.0119,0.0119,0.0119,0,0,0,0,0,0,0.0277,0.0275,0.0253,0.0258,0.0255,0.0238,0.0237,0.0234,0.0231,0.0205,0.0201,0.0224,0.0183,0.0178,0.0164,0.0179,0.0156,0.0154,0.0118,0.0119,0.0119,0.0178,0,0,0,0,0,0,0.0278,0.0275,0.0277,0.0259,0.0255,0.0248,0.0237,0.0233,0.0229,0.0228,0.0204,0.0199,0.0183,0.0167,0.0162,0.0175,0.0152,0.0118,0.0119,0.0119,0.0176,0.018,0.0184,0,0,0,0,0,0.0278,0.0283,0.0278,0.0276,0.0258,0.0249,0.0245,0.0233,0.0229,0.0231,0.0214,0.02,0.0166,0.0166,0.016,0.0173,0.0118,0.0118,0.0119,0.0174,0.0179,0.0184,0,0,0,0,0,0,0.0292,0.0282,0.0275,0.0276,0.0266,0.0247,0.0247,0.0237,0.0225,0.0226,0.02,0.0195,0.0188,0.0169,0.0169,0.0161,0.014,0.014,0.0184,0.0189,0.0193,0.0206,0.0151,0,0,0,0,0,0.0296,0.0299,0.0284,0.0285,0.0283,0.0266,0.026,0.0253,0.0239,0.0234,0.0216,0.0197,0.0184,0.0178,0.0159,0.0154,0.0127,0.0158,0.0162,0.0166,0.0171,0.0141,0.0143,0.012,0.012,0.012,0,0,0.0301,0.0296,0.0297,0.0288,0.028,0.0284,0.0263,0.0261,0.0267,0.023,0.0232,0.0209,0.0184,0.018,0.0176,0.0168,0.0157,0.0167,0.017,0.0173,0.0141,0.0144,0.0146,0.0121,0.0121,0.0121,0,0,0.0315,0.0309,0.0319,0.0315,0.0308,0.0299,0.0301,0.0286,0.0285,0.0279,0.0257,0.0244,0.0219,0.0209,0.02,0.0213,0.0177,0.0205,0.0241,0.0211,0.0213,0.0214,0.018,0.0177,0.0211,0.0211,0.0211,0,0.0321,0.0331,0.0319,0.0329,0.0331,0.031,0.0323,0.0318,0.03,0.0299,0.0289,0.0254,0.0236,0.0233,0.0242,0.0225,0.0196,0.0228,0.0218,0.0218,0.0218,0.0183,0.0179,0.0214,0.0214,0.0213,0.0213,0,0.0341,0.0353,0.0359,0.0367,0.0367,0.0374,0.0368,0.0368,0.0361,0.035,0.0341,0.0313,0.0292,0.0287,0.0272,0.0267,0.0241,0.0225,0.0209,0.0225,0.0185,0.0181,0.0218,0.0217,0.0216,0.0216,0,0,0.0344,0.037,0.0373,0.0387,0.039,0.0392,0.0409,0.0411,0.0416,0.04,0.04,0.0385,0.036,0.0347,0.0322,0.0305,0.0285,0.0272,0.0269,0.0244,0.0211,0.0177,0.0169,0.0263,0.0263,0.0263,0.0182,0,0.0364,0.0398,0.0403,0.0433,0.0449,0.0444,0.0459,0.0458,0.045,0.0441,0.0419,0.0407,0.0386,0.0375,0.0355,0.0299,0.0276,0.0308,0.0193,0.019,0.0164,0.0164,0.0262,0.0178,0.0177,0.0177,0.0176,0,0.0379,0.0403,0.0441,0.0471,0.0477,0.0491,0.0505,0.0515,0.0503,0.0496,0.0479,0.0448,0.0425,0.0401,0.0323,0.0342,0.0284,0.0242,0.0237,0.0183,0.0148,0.0158,0.0167,0.0168,0.0169,0.0169,0.017,0,0.0386,0.0425,0.046,0.0471,0.0501,0.0518,0.0531,0.0531,0.0544,0.0528,0.0526,0.0482,0.046,0.0391,0.0309,0.0311,0.0211,0.0198,0.0114,0.011,0.0139,0.0138,0.0141,0.0141,0.0141,0.0141,0.0141,0,0.0399,0.0424,0.0469,0.0488,0.0523,0.0538,0.0568,0.0569,0.0577,0.059,0.0554,0.0545,0.0457,0.0389,0.0311,0.0196,0.0208,0.0118,0.0088,0.0164,0.0168,0.0135,0.0136,0.0138,0.0139,0.0139,0.014,0,0.0393,0.0426,0.0464,0.0511,0.0529,0.0551,0.0598,0.0619,0.0624,0.0637,0.0637,0.0587,0.0498,0.0399,0.0275,0.0198,0.0095,0.005,0.0137,0.0113,0.0011,0.0016,-0.0055,-0.0057,-0.0058,-0.006,-0.0061,0,0.039,0.0415,0.0475,0.0504,0.0528,0.0572,0.0607,0.0636,0.0656,0.0662,0.0663,0.0594,0.0544,0.0351,0.0238,0.007,0.0048,-0.0014,0.0005,0.0014,-0.0008,-0.0002,0.0005,-0.0063,-0.0063,-0.0064,-0.0064,0,0.0381,0.0406,0.0436,0.05,0.0547,0.0601,0.0648,0.0666,0.0698,0.071,0.0684,0.0595,0.0484,0.0341,0.0205,0.0089,0.0023,-0.0031,-0.0028,-0.001,0.0003,-0.0016,-0.0008,-0.007,-0.0069,-0.0068,-0.0068,0,0.0365,0.0383,0.0433,0.0485,0.0549,0.061,0.0638,0.0671,0.0696,0.0705,0.0692,0.0596,0.0541,0.0349,0.0228,0.0103,0.0071,0.0031,0.003,0.0034,0.0083,0.0114,0.0049,0,0,0,0,0,0.035,0.0381,0.0424,0.0486,0.0548,0.0597,0.0659,0.0685,0.0718,0.0705,0.0703,0.0607,0.0429,0.0354,0.0223,0.0179,0.0035,0.0019,-0.0016,-0.01,-0.0093,-0.0055,0,0,0,0,0,0,0.0346,0.0383,0.0413,0.0478,0.0527,0.0604,0.0652,0.0677,0.0666,0.0681,0.0592,0.0565,0.0391,0.051,0.022,0.0182,0.0138,-0.0057,-0.006,-0.0103,-0.0097,-0.0092,-0.0051,0,0,0,0,0]}]]